TimeCST,TemperatureF,Dew PointF,Humidity,Sea Level PressureIn,VisibilityMPH,Wind Direction,Wind SpeedMPH,Gust SpeedMPH,PrecipitationIn,Events,Conditions,WindDirDegrees,DateUTC
12:53 AM,33.1,23.0,66,30.19,10.0,SE,9.2,-,N/A,,Clear,130,2013-03-07 06:53:00
1:53 AM,32.0,23.0,69,30.17,10.0,SE,10.4,-,N/A,,Clear,130,2013-03-07 07:53:00
2:53 AM,32.0,24.1,73,30.15,10.0,SE,11.5,-,N/A,,Clear,130,2013-03-07 08:53:00
3:53 AM,32.0,24.1,73,30.14,10.0,ESE,10.4,-,N/A,,Clear,120,2013-03-07 09:53:00
4:53 AM,30.9,24.1,76,30.12,10.0,SE,12.7,-,N/A,,Clear,130,2013-03-07 10:53:00
5:53 AM,30.9,24.1,76,30.12,10.0,SE,12.7,-,N/A,,Clear,130,2013-03-07 11:53:00
6:53 AM,30.9,24.1,76,30.12,10.0,SE,12.7,-,N/A,,Clear,130,2013-03-07 12:53:00
7:53 AM,34.0,24.1,67,30.12,9.0,ESE,12.7,-,N/A,,Clear,120,2013-03-07 13:53:00
8:53 AM,39.9,24.1,53,30.13,10.0,SE,15.0,-,N/A,,Clear,130,2013-03-07 14:53:00
9:53 AM,46.9,25.0,42,30.12,10.0,SSE,15.0,-,N/A,,Clear,160,2013-03-07 15:53:00
10:53 AM,52.0,25.0,35,30.12,10.0,South,16.1,25.3,N/A,,Clear,170,2013-03-07 16:53:00
11:53 AM,57.0,26.1,30,30.09,10.0,SSE,19.6,26.5,N/A,,Clear,160,2013-03-07 17:53:00
12:53 PM,60.1,28.0,30,30.06,10.0,SSE,21.9,-,N/A,,Clear,160,2013-03-07 18:53:00
1:53 PM,63.0,28.9,28,30.04,10.0,South,17.3,27.6,N/A,,Clear,170,2013-03-07 19:53:00
2:53 PM,63.0,28.9,28,30.02,10.0,South,16.1,26.5,N/A,,Clear,170,2013-03-07 20:53:00
3:53 PM,64.0,28.9,27,30.02,10.0,SSE,18.4,23.0,N/A,,Clear,160,2013-03-07 21:53:00
4:53 PM,64.0,28.9,27,30.01,10.0,South,17.3,-,N/A,,Clear,170,2013-03-07 22:53:00
5:53 PM,61.0,28.9,30,30.01,10.0,SE,11.5,-,N/A,,Clear,140,2013-03-07 23:53:00
6:53 PM,55.0,28.9,37,30.04,10.0,ESE,5.8,-,N/A,,Clear,120,2013-03-08 00:53:00
7:53 PM,52.0,30.0,43,30.04,10.0,ESE,8.1,-,N/A,,Clear,120,2013-03-08 01:53:00
8:53 PM,50.0,30.0,46,30.05,10.0,ESE,8.1,-,N/A,,Clear,110,2013-03-08 02:53:00
9:53 PM,48.0,30.0,50,30.06,10.0,ESE,9.2,-,N/A,,Clear,120,2013-03-08 03:53:00
10:53 PM,46.0,30.0,54,30.06,10.0,ESE,8.1,-,N/A,,Clear,110,2013-03-08 04:53:00
11:53 PM,44.1,30.0,58,30.06,10.0,ESE,6.9,-,N/A,,Clear,120,2013-03-08 05:53:00